Time,TemperatureF,DewpointF,PressureIn,WindDirection,WindDirectionDegrees,WindSpeedMPH,WindSpeedGustMPH,Humidity,HourlyPrecipIn,Conditions,Clouds,dailyrainin,SolarRadiationWatts/m^2,SoftwareType,DateUTC
2013-06-18 00:01:00,67.6,64.9,29.96,SE,144,3.0,6.0,91,0.00,,,0.06,0.0,meteohub,2013-06-18 04:01:00,
2013-06-18 00:02:00,67.6,64.9,29.96,SSE,161,1.0,6.0,91,0.00,,,0.06,0.0,meteohub,2013-06-18 04:02:00,
2013-06-18 00:03:00,67.6,64.9,29.96,SSE,151,2.0,6.0,91,0.00,,,0.06,0.0,meteohub,2013-06-18 04:03:00,
2013-06-18 00:05:00,67.6,64.9,29.96,SE,142,4.0,6.0,91,0.00,,,0.06,0.0,meteohub,2013-06-18 04:05:00,
2013-06-18 00:10:00,67.5,64.8,29.95,SE,130,4.0,6.0,91,0.00,,,0.06,0.0,meteohub,2013-06-18 04:10:00,
2013-06-18 00:15:00,67.5,64.8,29.95,SSE,151,3.0,6.0,91,0.00,,,0.07,0.0,meteohub,2013-06-18 04:15:00,
2013-06-18 00:20:00,67.5,64.8,29.94,SE,138,4.0,6.0,91,0.01,,,0.07,0.0,meteohub,2013-06-18 04:20:00,
2013-06-18 00:25:00,67.5,64.8,29.93,SSE,163,2.0,6.0,91,0.01,,,0.07,0.0,meteohub,2013-06-18 04:25:00,
2013-06-18 00:30:00,67.3,64.6,29.93,SSE,163,0.0,5.0,91,0.01,,,0.07,0.0,meteohub,2013-06-18 04:30:00,
2013-06-18 00:35:00,67.3,64.9,29.92,SSE,163,2.0,3.0,92,0.01,,,0.07,0.0,meteohub,2013-06-18 04:35:00,
2013-06-18 00:40:00,67.3,64.9,29.91,SSW,197,1.0,2.0,92,0.01,,,0.07,0.0,meteohub,2013-06-18 04:40:00,
2013-06-18 00:45:00,67.3,64.9,29.90,SSW,198,0.0,2.0,92,0.01,,,0.07,0.0,meteohub,2013-06-18 04:45:00,
2013-06-18 00:50:00,67.1,64.8,29.89,SSW,198,0.0,2.0,92,0.01,,,0.07,0.0,meteohub,2013-06-18 04:50:00,
2013-06-18 00:55:00,67.1,64.8,29.89,SW,215,1.0,2.0,92,0.01,,,0.07,0.0,meteohub,2013-06-18 04:55:00,
2013-06-18 01:00:00,66.9,64.8,29.88,West,267,2.0,3.0,93,0.02,,,0.08,0.0,meteohub,2013-06-18 05:00:00,
2013-06-18 01:06:00,66.9,64.8,29.87,WSW,241,1.0,4.0,93,0.02,,,0.08,0.0,meteohub,2013-06-18 05:06:00,
2013-06-18 01:11:00,66.9,64.8,29.87,South,188,1.0,4.0,93,0.02,,,0.08,0.0,meteohub,2013-06-18 05:11:00,
2013-06-18 01:16:00,66.9,64.8,29.86,West,281,1.0,4.0,93,0.01,,,0.08,0.0,meteohub,2013-06-18 05:16:00,
2013-06-18 01:21:00,66.9,64.8,29.86,NW,318,3.0,3.0,93,0.01,,,0.08,0.0,meteohub,2013-06-18 05:21:00,
2013-06-18 01:26:00,66.9,64.8,29.86,NW,318,1.0,3.0,93,0.01,,,0.08,0.0,meteohub,2013-06-18 05:26:00,
2013-06-18 01:31:00,66.9,64.8,29.86,NW,317,0.0,3.0,93,0.01,,,0.08,0.0,meteohub,2013-06-18 05:31:00,
2013-06-18 01:36:00,66.9,64.8,29.86,NW,318,0.0,3.0,93,0.01,,,0.08,0.0,meteohub,2013-06-18 05:36:00,
2013-06-18 01:41:00,66.9,64.8,29.86,NW,318,0.0,2.0,93,0.01,,,0.08,0.0,meteohub,2013-06-18 05:41:00,
2013-06-18 01:46:00,66.9,64.8,29.85,NW,318,0.0,2.0,93,0.01,,,0.08,0.0,meteohub,2013-06-18 05:46:00,
2013-06-18 01:51:00,66.9,64.8,29.85,NW,317,1.0,1.0,93,0.01,,,0.08,0.0,meteohub,2013-06-18 05:51:00,
2013-06-18 01:56:00,66.9,64.8,29.86,NW,308,2.0,2.0,93,0.01,,,0.08,0.0,meteohub,2013-06-18 05:56:00,
2013-06-18 02:01:00,66.9,64.8,29.86,SW,235,3.0,5.0,93,0.00,,,0.08,0.0,meteohub,2013-06-18 06:01:00,
2013-06-18 02:06:00,66.7,64.6,29.86,WSW,250,3.0,5.0,93,0.00,,,0.08,0.0,meteohub,2013-06-18 06:06:00,
2013-06-18 02:12:00,66.7,64.6,29.87,SE,127,3.0,5.0,93,0.00,,,0.08,0.0,meteohub,2013-06-18 06:12:00,
2013-06-18 02:17:00,66.7,64.4,29.88,SE,131,4.0,7.0,92,0.00,,,0.08,0.0,meteohub,2013-06-18 06:17:00,
2013-06-18 02:22:00,66.7,64.4,29.89,NE,48,3.0,7.0,92,0.00,,,0.08,0.0,meteohub,2013-06-18 06:22:00,
2013-06-18 02:27:00,66.7,64.0,29.89,South,173,7.0,7.0,91,0.00,,,0.08,0.0,meteohub,2013-06-18 06:27:00,
2013-06-18 02:32:00,66.9,63.9,29.89,SE,126,1.0,13.0,90,0.00,,,0.08,0.0,meteohub,2013-06-18 06:32:00,
2013-06-18 02:37:00,66.9,63.5,29.90,SSE,166,5.0,13.0,89,0.00,,,0.08,0.0,meteohub,2013-06-18 06:37:00,
2013-06-18 02:42:00,66.9,63.5,29.89,South,169,8.0,13.0,89,0.01,,,0.09,0.0,meteohub,2013-06-18 06:42:00,
2013-06-18 02:47:00,66.7,63.3,29.90,SE,140,4.0,10.0,89,0.01,,,0.09,0.0,meteohub,2013-06-18 06:47:00,
2013-06-18 02:52:00,66.7,63.3,29.90,SE,125,5.0,12.0,89,0.01,,,0.09,0.0,meteohub,2013-06-18 06:52:00,
2013-06-18 02:57:00,66.7,63.7,29.89,SSE,164,5.0,12.0,90,0.01,,,0.09,0.0,meteohub,2013-06-18 06:57:00,
2013-06-18 03:02:00,66.6,63.5,29.90,SE,135,7.0,12.0,90,0.02,,,0.10,0.0,meteohub,2013-06-18 07:02:00,
2013-06-18 03:07:00,66.6,63.9,29.90,SE,136,4.0,10.0,91,0.02,,,0.10,0.0,meteohub,2013-06-18 07:07:00,
2013-06-18 03:12:00,66.6,63.9,29.89,SSE,148,4.0,10.0,91,0.02,,,0.10,0.0,meteohub,2013-06-18 07:12:00,
2013-06-18 03:17:00,66.4,63.7,29.89,SSE,163,5.0,10.0,91,0.02,,,0.10,0.0,meteohub,2013-06-18 07:17:00,
2013-06-18 03:22:00,66.4,64.0,29.89,ESE,113,0.0,10.0,92,0.02,,,0.10,0.0,meteohub,2013-06-18 07:22:00,
2013-06-18 03:27:00,66.4,64.0,29.89,SW,215,1.0,10.0,92,0.02,,,0.10,0.0,meteohub,2013-06-18 07:27:00,
2013-06-18 03:32:00,66.4,64.0,29.89,South,177,1.0,8.0,92,0.02,,,0.10,0.0,meteohub,2013-06-18 07:32:00,
2013-06-18 03:37:00,66.2,63.9,29.89,South,177,0.0,6.0,92,0.02,,,0.10,0.0,meteohub,2013-06-18 07:37:00,
2013-06-18 03:42:00,66.2,63.9,29.89,ESE,102,1.0,6.0,92,0.01,,,0.10,0.0,meteohub,2013-06-18 07:42:00,
2013-06-18 03:47:00,66.2,64.0,29.89,NNE,23,1.0,5.0,93,0.02,,,0.11,0.0,meteohub,2013-06-18 07:47:00,
2013-06-18 03:52:00,66.2,64.0,29.89,NNE,23,0.0,3.0,93,0.02,,,0.11,0.0,meteohub,2013-06-18 07:52:00,
2013-06-18 03:58:00,66.0,63.9,29.89,NNE,24,1.0,3.0,93,0.02,,,0.11,0.0,meteohub,2013-06-18 07:58:00,
2013-06-18 04:03:00,66.0,63.9,29.89,NNE,24,0.0,3.0,93,0.01,,,0.11,0.0,meteohub,2013-06-18 08:03:00,
2013-06-18 04:08:00,66.0,63.9,29.89,NW,308,2.0,2.0,93,0.02,,,0.12,0.0,meteohub,2013-06-18 08:08:00,
2013-06-18 04:13:00,65.8,63.7,29.88,SW,215,1.0,2.0,93,0.02,,,0.12,0.0,meteohub,2013-06-18 08:13:00,
2013-06-18 04:18:00,65.8,64.0,29.88,SW,223,1.0,4.0,94,0.02,,,0.12,0.0,meteohub,2013-06-18 08:18:00,
2013-06-18 04:23:00,65.8,64.0,29.88,SW,223,0.0,4.0,94,0.02,,,0.12,0.0,meteohub,2013-06-18 08:23:00,
2013-06-18 04:28:00,65.8,64.0,29.88,SW,223,1.0,4.0,94,0.02,,,0.12,0.0,meteohub,2013-06-18 08:28:00,
2013-06-18 04:33:00,65.8,63.7,29.88,WNW,298,0.0,3.0,93,0.02,,,0.12,0.0,meteohub,2013-06-18 08:33:00,
2013-06-18 04:38:00,65.8,63.7,29.88,WNW,298,0.0,2.0,93,0.02,,,0.12,0.0,meteohub,2013-06-18 08:38:00,
2013-06-18 04:43:00,65.8,64.0,29.88,WNW,298,0.0,2.0,94,0.03,,,0.13,0.0,meteohub,2013-06-18 08:43:00,
2013-06-18 04:48:00,65.8,64.0,29.89,WNW,298,0.0,2.0,94,0.02,,,0.13,0.0,meteohub,2013-06-18 08:48:00,
2013-06-18 04:53:00,65.8,64.0,29.88,WNW,298,0.0,0.0,94,0.02,,,0.13,0.0,meteohub,2013-06-18 08:53:00,
2013-06-18 04:58:00,65.8,64.0,29.88,WNW,298,0.0,1.0,94,0.03,,,0.14,0.0,meteohub,2013-06-18 08:58:00,
2013-06-18 05:03:00,65.8,64.0,29.88,WNW,298,1.0,1.0,94,0.03,,,0.14,0.0,meteohub,2013-06-18 09:03:00,
2013-06-18 05:08:00,65.8,64.0,29.88,SW,215,2.0,2.0,94,0.02,,,0.14,0.0,meteohub,2013-06-18 09:08:00,
2013-06-18 05:13:00,65.7,63.9,29.88,South,169,2.0,2.0,94,0.02,,,0.14,0.0,meteohub,2013-06-18 09:13:00,
2013-06-18 05:19:00,65.7,63.9,29.88,SE,144,0.0,3.0,94,0.02,,,0.14,0.0,meteohub,2013-06-18 09:19:00,
2013-06-18 05:24:00,65.7,63.9,29.88,SE,144,0.0,3.0,94,0.02,,,0.14,0.0,meteohub,2013-06-18 09:24:00,
2013-06-18 05:29:00,65.7,63.9,29.88,SE,144,1.0,3.0,94,0.02,,,0.14,0.0,meteohub,2013-06-18 09:29:00,
2013-06-18 05:34:00,65.5,63.7,29.88,SSE,158,1.0,2.0,94,0.02,,,0.14,0.0,meteohub,2013-06-18 09:34:00,
2013-06-18 05:39:00,65.5,63.7,29.88,SSE,158,1.0,2.0,94,0.02,,,0.14,0.0,meteohub,2013-06-18 09:39:00,
2013-06-18 05:44:00,65.5,63.7,29.88,South,175,2.0,2.0,94,0.02,,,0.15,0.0,meteohub,2013-06-18 09:44:00,
2013-06-18 05:49:00,65.3,63.5,29.88,SSW,200,0.0,3.0,94,0.02,,,0.15,0.0,meteohub,2013-06-18 09:49:00,
2013-06-18 05:54:00,65.3,63.5,29.88,SSE,163,1.0,3.0,94,0.02,,,0.15,0.0,meteohub,2013-06-18 09:54:00,
2013-06-18 05:59:00,65.1,63.3,29.89,South,189,2.0,3.0,94,0.02,,,0.16,0.0,meteohub,2013-06-18 09:59:00,
2013-06-18 06:04:00,65.1,63.3,29.89,South,189,0.0,3.0,94,0.02,,,0.16,0.0,meteohub,2013-06-18 10:04:00,
2013-06-18 06:09:00,65.1,63.3,29.89,West,275,1.0,3.0,94,0.02,,,0.16,0.0,meteohub,2013-06-18 10:09:00,
2013-06-18 06:14:00,65.1,63.3,29.90,NNW,340,4.0,4.0,94,0.02,,,0.16,0.0,meteohub,2013-06-18 10:14:00,
2013-06-18 06:19:00,65.1,63.3,29.91,North,357,4.0,6.0,94,0.02,,,0.16,0.0,meteohub,2013-06-18 10:19:00,
2013-06-18 06:25:00,65.1,63.3,29.91,NW,306,1.0,8.0,94,0.03,,,0.17,0.0,meteohub,2013-06-18 10:25:00,
2013-06-18 06:30:00,65.1,63.3,29.90,NNW,333,1.0,8.0,94,0.03,,,0.17,0.0,meteohub,2013-06-18 10:30:00,
2013-06-18 06:35:00,65.1,63.3,29.91,NNW,337,2.0,8.0,94,0.03,,,0.17,0.0,meteohub,2013-06-18 10:35:00,
2013-06-18 06:40:00,65.1,63.3,29.91,NNE,15,2.0,7.0,94,0.03,,,0.17,5.0,meteohub,2013-06-18 10:40:00,
2013-06-18 06:45:00,65.1,63.3,29.91,North,354,0.0,5.0,94,0.02,,,0.17,5.0,meteohub,2013-06-18 10:45:00,
2013-06-18 06:50:00,65.1,63.3,29.91,NNW,343,2.0,5.0,94,0.01,,,0.17,9.0,meteohub,2013-06-18 10:50:00,
2013-06-18 06:55:00,65.1,63.3,29.91,NNW,346,1.0,5.0,94,0.01,,,0.17,7.0,meteohub,2013-06-18 10:55:00,
2013-06-18 07:00:00,65.3,63.5,29.91,North,3,1.0,4.0,94,0.01,,,0.17,7.0,meteohub,2013-06-18 11:00:00,
2013-06-18 07:05:00,65.3,63.5,29.91,North,351,2.0,4.0,94,0.01,,,0.17,11.0,meteohub,2013-06-18 11:05:00,
2013-06-18 07:10:00,65.3,63.5,29.91,North,355,1.0,4.0,94,0.01,,,0.17,12.0,meteohub,2013-06-18 11:10:00,
2013-06-18 07:15:00,65.3,63.5,29.91,North,11,0.0,4.0,94,0.01,,,0.17,12.0,meteohub,2013-06-18 11:15:00,
2013-06-18 07:20:00,65.3,63.5,29.91,North,352,2.0,3.0,94,0.00,,,0.17,18.0,meteohub,2013-06-18 11:20:00,
2013-06-18 07:25:00,65.3,63.5,29.91,North,352,2.0,3.0,94,0.01,,,0.18,26.0,meteohub,2013-06-18 11:25:00,
2013-06-18 07:31:00,65.5,63.7,29.91,NW,323,0.0,3.0,94,0.01,,,0.18,21.0,meteohub,2013-06-18 11:31:00,
2013-06-18 07:36:00,65.5,63.7,29.91,NNW,335,0.0,3.0,94,0.01,,,0.18,21.0,meteohub,2013-06-18 11:36:00,
2013-06-18 07:41:00,65.5,63.7,29.91,NNW,335,0.0,2.0,94,0.01,,,0.18,30.0,meteohub,2013-06-18 11:41:00,
2013-06-18 07:46:00,65.5,63.7,29.91,NNW,335,1.0,2.0,94,0.01,,,0.18,39.0,meteohub,2013-06-18 11:46:00,
2013-06-18 07:51:00,65.5,64.0,29.91,WNW,292,1.0,2.0,95,0.01,,,0.18,49.0,meteohub,2013-06-18 11:51:00,
2013-06-18 07:56:00,65.7,64.2,29.91,WNW,301,0.0,2.0,95,0.01,,,0.18,62.0,meteohub,2013-06-18 11:56:00,
2013-06-18 08:01:00,65.7,64.2,29.91,WNW,301,1.0,2.0,95,0.01,,,0.18,51.0,meteohub,2013-06-18 12:01:00,
2013-06-18 08:06:00,65.7,64.2,29.92,WNW,301,1.0,2.0,95,0.01,,,0.18,56.0,meteohub,2013-06-18 12:06:00,
2013-06-18 08:11:00,65.8,64.4,29.92,WNW,301,1.0,2.0,95,0.01,,,0.18,70.0,meteohub,2013-06-18 12:11:00,
2013-06-18 08:16:00,65.8,64.4,29.92,NW,315,1.0,2.0,95,0.02,,,0.19,86.0,meteohub,2013-06-18 12:16:00,
2013-06-18 08:21:00,66.0,64.6,29.93,NW,325,1.0,3.0,95,0.02,,,0.19,69.0,meteohub,2013-06-18 12:21:00,
2013-06-18 08:27:00,66.2,64.8,29.93,WNW,292,1.0,3.0,95,0.01,,,0.19,91.0,meteohub,2013-06-18 12:27:00,
2013-06-18 08:32:00,66.4,64.9,29.93,NW,309,1.0,4.0,95,0.01,,,0.19,144.0,meteohub,2013-06-18 12:32:00,
2013-06-18 08:37:00,66.4,64.9,29.93,NW,306,1.0,4.0,95,0.01,,,0.19,104.0,meteohub,2013-06-18 12:37:00,
2013-06-18 08:42:00,66.6,64.8,29.94,WNW,298,2.0,5.0,94,0.01,,,0.19,72.0,meteohub,2013-06-18 12:42:00,
2013-06-18 08:47:00,66.6,64.8,29.94,WNW,299,2.0,5.0,94,0.01,,,0.19,91.0,meteohub,2013-06-18 12:47:00,
2013-06-18 08:52:00,66.6,64.4,29.94,WNW,286,1.0,5.0,93,0.01,,,0.19,121.0,meteohub,2013-06-18 12:52:00,
2013-06-18 08:57:00,66.7,64.6,29.94,WNW,292,2.0,5.0,93,0.01,,,0.19,146.0,meteohub,2013-06-18 12:57:00,
2013-06-18 09:02:00,66.9,65.1,29.93,WNW,295,0.0,5.0,94,0.01,,,0.19,188.0,meteohub,2013-06-18 13:02:00,
2013-06-18 09:07:00,67.3,65.5,29.93,West,275,1.0,3.0,94,0.01,,,0.19,213.0,meteohub,2013-06-18 13:07:00,
2013-06-18 09:12:00,67.6,65.5,29.93,WSW,248,1.0,3.0,93,0.00,,,0.19,155.0,meteohub,2013-06-18 13:12:00,
2013-06-18 09:17:00,67.8,65.5,29.93,WSW,248,0.0,3.0,92,0.00,,,0.19,139.0,meteohub,2013-06-18 13:17:00,
2013-06-18 09:23:00,68.0,65.3,29.94,WSW,251,0.0,3.0,91,0.00,,,0.19,84.0,meteohub,2013-06-18 13:23:00,
2013-06-18 09:28:00,68.2,65.5,29.94,WNW,294,0.0,3.0,91,0.00,,,0.19,83.0,meteohub,2013-06-18 13:28:00,
2013-06-18 09:33:00,68.2,65.8,29.94,WNW,294,1.0,2.0,92,0.00,,,0.19,88.0,meteohub,2013-06-18 13:33:00,
2013-06-18 09:38:00,68.4,66.0,29.94,NW,315,0.0,2.0,92,0.00,,,0.19,98.0,meteohub,2013-06-18 13:38:00,
2013-06-18 09:43:00,68.4,65.7,29.95,WNW,283,1.0,3.0,91,0.00,,,0.19,104.0,meteohub,2013-06-18 13:43:00,
2013-06-18 09:48:00,68.4,65.7,29.94,NW,323,2.0,3.0,91,0.00,,,0.19,135.0,meteohub,2013-06-18 13:48:00,
2013-06-18 09:53:00,68.5,66.2,29.94,WNW,290,1.0,3.0,92,0.00,,,0.19,171.0,meteohub,2013-06-18 13:53:00,
2013-06-18 09:58:00,68.7,66.0,29.94,West,265,2.0,3.0,91,0.00,,,0.19,230.0,meteohub,2013-06-18 13:58:00,
2013-06-18 10:03:00,68.9,66.2,29.94,West,269,1.0,4.0,91,0.00,,,0.19,278.0,meteohub,2013-06-18 14:03:00,
2013-06-18 10:08:00,69.3,66.6,29.94,WSW,249,1.0,4.0,91,0.00,,,0.19,350.0,meteohub,2013-06-18 14:08:00,
2013-06-18 10:14:00,70.2,67.6,29.93,NW,304,2.0,4.0,92,0.00,,,0.19,577.0,meteohub,2013-06-18 14:14:00,
2013-06-18 10:19:00,72.1,67.6,29.92,NW,324,2.0,4.0,86,0.00,,,0.19,747.0,meteohub,2013-06-18 14:19:00,
2013-06-18 10:24:00,73.0,67.3,29.92,NNW,348,0.0,4.0,82,0.00,,,0.19,721.0,meteohub,2013-06-18 14:24:00,
2013-06-18 10:29:00,73.8,68.0,29.92,WNW,298,2.0,4.0,82,0.00,,,0.19,450.0,meteohub,2013-06-18 14:29:00,
2013-06-18 10:34:00,73.2,67.1,29.92,NNW,333,1.0,4.0,81,0.00,,,0.19,506.0,meteohub,2013-06-18 14:34:00,
2013-06-18 10:39:00,73.2,68.4,29.92,NNW,333,3.0,6.0,85,0.00,,,0.19,459.0,meteohub,2013-06-18 14:39:00,
2013-06-18 10:44:00,73.2,68.4,29.92,WNW,285,3.0,6.0,85,0.00,,,0.19,513.0,meteohub,2013-06-18 14:44:00,
2013-06-18 10:49:00,73.0,67.6,29.92,WSW,256,2.0,7.0,83,0.00,,,0.19,466.0,meteohub,2013-06-18 14:49:00,
2013-06-18 10:54:00,73.2,66.7,29.92,WSW,238,3.0,7.0,80,0.00,,,0.19,462.0,meteohub,2013-06-18 14:54:00,
2013-06-18 11:00:00,73.2,67.8,29.92,West,262,2.0,7.0,83,0.00,,,0.19,503.0,meteohub,2013-06-18 15:00:00,
2013-06-18 11:05:00,73.6,67.5,29.92,NW,309,3.0,5.0,81,0.00,,,0.19,490.0,meteohub,2013-06-18 15:05:00,
2013-06-18 11:10:00,73.8,67.3,29.92,NNW,340,4.0,5.0,80,0.00,,,0.19,503.0,meteohub,2013-06-18 15:10:00,
2013-06-18 11:15:00,74.3,68.4,29.92,North,350,4.0,5.0,82,0.00,,,0.19,570.0,meteohub,2013-06-18 15:15:00,
2013-06-18 11:20:00,75.4,68.7,29.92,WNW,289,2.0,6.0,80,0.00,,,0.19,895.0,meteohub,2013-06-18 15:20:00,
2013-06-18 11:25:00,75.6,67.5,29.92,NE,35,2.0,6.0,76,0.00,,,0.19,877.0,meteohub,2013-06-18 15:25:00,
2013-06-18 11:30:00,75.9,67.5,29.92,NNW,337,2.0,7.0,75,0.00,,,0.19,874.0,meteohub,2013-06-18 15:30:00,
2013-06-18 11:35:00,76.5,68.0,29.91,North,354,1.0,7.0,75,0.00,,,0.19,842.0,meteohub,2013-06-18 15:35:00,
2013-06-18 11:40:00,77.2,68.2,29.91,NNW,336,1.0,7.0,74,0.00,,,0.19,824.0,meteohub,2013-06-18 15:40:00,
2013-06-18 11:45:00,77.2,67.5,29.91,NNW,332,2.0,7.0,72,0.00,,,0.19,350.0,meteohub,2013-06-18 15:45:00,
2013-06-18 11:50:00,76.8,64.9,29.91,WSW,252,2.0,7.0,67,0.00,,,0.19,819.0,meteohub,2013-06-18 15:50:00,
2013-06-18 11:55:00,76.6,65.7,29.90,West,278,1.0,7.0,69,0.00,,,0.19,882.0,meteohub,2013-06-18 15:55:00,
2013-06-18 12:01:00,77.2,69.4,29.90,WNW,290,3.0,7.0,77,0.00,,,0.19,882.0,meteohub,2013-06-18 16:01:00,
2013-06-18 12:06:00,77.5,69.4,29.90,SW,215,2.0,7.0,76,0.00,,,0.19,893.0,meteohub,2013-06-18 16:06:00,
2013-06-18 12:11:00,77.5,67.5,29.90,SW,231,2.0,7.0,71,0.00,,,0.19,900.0,meteohub,2013-06-18 16:11:00,
2013-06-18 12:16:00,77.9,67.8,29.89,SSW,201,2.0,7.0,71,0.00,,,0.19,944.0,meteohub,2013-06-18 16:16:00,
2013-06-18 12:21:00,78.3,68.0,29.89,West,281,0.0,7.0,71,0.00,,,0.19,930.0,meteohub,2013-06-18 16:21:00,
2013-06-18 12:26:00,78.6,68.0,29.88,NNW,346,3.0,7.0,70,0.00,,,0.19,932.0,meteohub,2013-06-18 16:26:00,
2013-06-18 12:31:00,79.5,70.2,29.88,NE,35,2.0,7.0,73,0.00,,,0.19,951.0,meteohub,2013-06-18 16:31:00,
2013-06-18 12:36:00,79.3,69.1,29.88,NE,56,1.0,6.0,71,0.00,,,0.19,1018.0,meteohub,2013-06-18 16:36:00,
2013-06-18 12:41:00,78.6,68.9,29.88,WNW,300,5.0,6.0,72,0.00,,,0.19,1028.0,meteohub,2013-06-18 16:41:00,
2013-06-18 12:46:00,78.4,67.5,29.88,NNE,20,4.0,7.0,69,0.00,,,0.19,1069.0,meteohub,2013-06-18 16:46:00,
2013-06-18 12:51:00,77.9,66.6,29.88,NW,323,3.0,7.0,68,0.00,,,0.19,937.0,meteohub,2013-06-18 16:51:00,
2013-06-18 12:56:00,78.3,67.3,29.89,WSW,253,3.0,7.0,69,0.00,,,0.19,900.0,meteohub,2013-06-18 16:56:00,
2013-06-18 13:02:00,79.5,66.7,29.89,NNW,331,0.0,6.0,65,0.00,,,0.19,1046.0,meteohub,2013-06-18 17:02:00,
2013-06-18 13:07:00,80.1,69.8,29.88,WNW,303,6.0,6.0,71,0.00,,,0.19,1013.0,meteohub,2013-06-18 17:07:00,
2013-06-18 13:12:00,80.2,68.4,29.88,WNW,300,6.0,9.0,67,0.00,,,0.19,1027.0,meteohub,2013-06-18 17:12:00,
2013-06-18 13:17:00,80.8,69.3,29.88,NNW,327,4.0,9.0,68,0.00,,,0.19,1092.0,meteohub,2013-06-18 17:17:00,
2013-06-18 13:22:00,81.5,68.5,29.88,WNW,287,3.0,9.0,65,0.00,,,0.19,1132.0,meteohub,2013-06-18 17:22:00,
2013-06-18 13:27:00,81.7,70.5,29.88,NNE,15,6.0,8.0,69,0.00,,,0.19,1188.0,meteohub,2013-06-18 17:27:00,
2013-06-18 13:32:00,81.5,68.5,29.88,North,354,2.0,11.0,65,0.00,,,0.19,1049.0,meteohub,2013-06-18 17:32:00,
2013-06-18 13:37:00,81.3,67.5,29.88,WNW,286,3.0,11.0,63,0.00,,,0.19,993.0,meteohub,2013-06-18 17:37:00,
2013-06-18 13:42:00,81.1,68.7,29.88,West,280,3.0,9.0,66,0.00,,,0.19,1206.0,meteohub,2013-06-18 17:42:00,
2013-06-18 13:47:00,80.8,67.5,29.88,NW,307,5.0,9.0,64,0.00,,,0.19,1125.0,meteohub,2013-06-18 17:47:00,
2013-06-18 13:52:00,80.8,67.5,29.88,NE,38,4.0,9.0,64,0.00,,,0.19,863.0,meteohub,2013-06-18 17:52:00,
2013-06-18 13:57:00,80.4,69.8,29.88,North,354,4.0,9.0,70,0.00,,,0.19,863.0,meteohub,2013-06-18 17:57:00,
2013-06-18 14:02:00,81.1,67.8,29.88,NE,34,2.0,9.0,64,0.00,,,0.19,986.0,meteohub,2013-06-18 18:02:00,
2013-06-18 14:07:00,81.0,67.1,29.88,NNW,340,4.0,7.0,63,0.00,,,0.19,343.0,meteohub,2013-06-18 18:07:00,
2013-06-18 14:12:00,81.0,66.7,29.88,NW,318,5.0,8.0,62,0.00,,,0.19,960.0,meteohub,2013-06-18 18:12:00,
2013-06-18 14:17:00,81.0,68.0,29.88,WNW,297,2.0,8.0,65,0.00,,,0.19,689.0,meteohub,2013-06-18 18:17:00,
2013-06-18 14:22:00,81.3,67.5,29.87,WNW,301,7.0,8.0,63,0.00,,,0.19,1023.0,meteohub,2013-06-18 18:22:00,
2013-06-18 14:28:00,82.4,69.4,29.87,West,272,2.0,8.0,65,0.00,,,0.19,1016.0,meteohub,2013-06-18 18:28:00,
2013-06-18 14:33:00,82.4,69.4,29.87,NW,326,4.0,8.0,65,0.00,,,0.19,995.0,meteohub,2013-06-18 18:33:00,
2013-06-18 14:38:00,82.6,67.8,29.87,ENE,57,3.0,10.0,61,0.00,,,0.19,990.0,meteohub,2013-06-18 18:38:00,
2013-06-18 14:43:00,82.6,66.4,29.87,NNE,28,3.0,10.0,58,0.00,,,0.19,990.0,meteohub,2013-06-18 18:43:00,
2013-06-18 14:48:00,82.9,67.1,29.87,North,0,5.0,10.0,59,0.00,,,0.19,979.0,meteohub,2013-06-18 18:48:00,
2013-06-18 14:54:00,83.1,66.7,29.86,NNW,340,5.0,8.0,58,0.00,,,0.19,995.0,meteohub,2013-06-18 18:54:00,
2013-06-18 14:59:00,82.9,66.6,29.86,North,10,0.0,8.0,58,0.00,,,0.19,905.0,meteohub,2013-06-18 18:59:00,
2013-06-18 15:04:00,82.6,66.7,29.86,NW,313,3.0,8.0,59,0.00,,,0.19,951.0,meteohub,2013-06-18 19:04:00,
2013-06-18 15:09:00,83.1,69.6,29.86,WNW,295,5.0,8.0,64,0.00,,,0.19,963.0,meteohub,2013-06-18 19:09:00,
2013-06-18 15:14:00,83.3,69.8,29.86,NW,317,1.0,8.0,64,0.00,,,0.19,967.0,meteohub,2013-06-18 19:14:00,
2013-06-18 15:19:00,83.5,67.6,29.86,North,357,4.0,8.0,59,0.00,,,0.19,967.0,meteohub,2013-06-18 19:19:00,
2013-06-18 15:24:00,82.8,64.9,29.87,North,350,3.0,8.0,55,0.00,,,0.19,914.0,meteohub,2013-06-18 19:24:00,
2013-06-18 15:30:00,83.5,70.0,29.86,WNW,300,3.0,8.0,64,0.00,,,0.19,900.0,meteohub,2013-06-18 19:30:00,
2013-06-18 15:35:00,82.9,68.2,29.87,NW,322,2.0,8.0,61,0.00,,,0.19,274.0,meteohub,2013-06-18 19:35:00,
2013-06-18 15:40:00,83.7,67.8,29.86,North,1,2.0,7.0,59,0.00,,,0.19,958.0,meteohub,2013-06-18 19:40:00,
2013-06-18 15:45:00,83.5,66.6,29.86,North,1,1.0,7.0,57,0.00,,,0.19,311.0,meteohub,2013-06-18 19:45:00,
2013-06-18 15:50:00,83.3,66.0,29.86,NNW,340,5.0,7.0,56,0.00,,,0.19,983.0,meteohub,2013-06-18 19:50:00,
2013-06-18 15:55:00,82.9,67.6,29.87,NNW,332,1.0,8.0,60,0.00,,,0.19,983.0,meteohub,2013-06-18 19:55:00,
2013-06-18 16:00:00,82.6,65.8,29.87,North,354,1.0,8.0,57,0.00,,,0.19,846.0,meteohub,2013-06-18 20:00:00,
2013-06-18 16:05:00,82.8,68.0,29.87,NNW,331,2.0,7.0,61,0.00,,,0.19,260.0,meteohub,2013-06-18 20:05:00,
2013-06-18 16:10:00,83.7,68.4,29.86,North,2,3.0,4.0,60,0.00,,,0.19,842.0,meteohub,2013-06-18 20:10:00,
2013-06-18 16:16:00,84.4,66.9,29.86,NW,317,2.0,7.0,56,0.00,,,0.19,872.0,meteohub,2013-06-18 20:16:00,
2013-06-18 16:21:00,84.2,66.7,29.86,North,358,1.0,7.0,56,0.00,,,0.19,875.0,meteohub,2013-06-18 20:21:00,
2013-06-18 16:26:00,83.8,66.4,29.86,NNE,13,7.0,7.0,56,0.00,,,0.19,868.0,meteohub,2013-06-18 20:26:00,
2013-06-18 16:31:00,84.2,66.2,29.86,NE,50,4.0,9.0,55,0.00,,,0.19,826.0,meteohub,2013-06-18 20:31:00,
2013-06-18 16:37:00,84.6,65.5,29.86,NNE,19,2.0,9.0,53,0.00,,,0.19,816.0,meteohub,2013-06-18 20:37:00,
2013-06-18 16:42:00,84.9,68.0,29.86,NNW,346,3.0,9.0,57,0.00,,,0.19,830.0,meteohub,2013-06-18 20:42:00,
2013-06-18 16:47:00,84.9,65.3,29.86,NNE,18,1.0,7.0,52,0.00,,,0.19,185.0,meteohub,2013-06-18 20:47:00,
2013-06-18 16:52:00,84.2,66.7,29.86,North,4,4.0,8.0,56,0.00,,,0.19,791.0,meteohub,2013-06-18 20:52:00,
2013-06-18 16:57:00,84.0,65.1,29.86,North,349,2.0,8.0,53,0.00,,,0.19,285.0,meteohub,2013-06-18 20:57:00,
2013-06-18 17:02:00,84.6,67.6,29.86,ENE,57,3.0,5.0,57,0.00,,,0.19,302.0,meteohub,2013-06-18 21:02:00,
2013-06-18 17:07:00,84.6,66.6,29.86,SE,143,3.0,5.0,55,0.00,,,0.19,744.0,meteohub,2013-06-18 21:07:00,
2013-06-18 17:12:00,85.3,67.3,29.85,East,94,2.0,5.0,55,0.00,,,0.19,733.0,meteohub,2013-06-18 21:12:00,
2013-06-18 17:17:00,84.7,67.8,29.85,NE,36,2.0,5.0,57,0.00,,,0.19,680.0,meteohub,2013-06-18 21:17:00,
2013-06-18 17:22:00,84.7,68.4,29.85,NE,50,2.0,5.0,58,0.00,,,0.19,652.0,meteohub,2013-06-18 21:22:00,
2013-06-18 17:27:00,83.8,66.9,29.85,SE,132,3.0,5.0,57,0.00,,,0.19,172.0,meteohub,2013-06-18 21:27:00,
2013-06-18 17:32:00,82.8,65.5,29.86,SE,139,0.0,5.0,56,0.00,,,0.19,185.0,meteohub,2013-06-18 21:32:00,
2013-06-18 17:37:00,82.0,66.4,29.85,SSE,151,1.0,5.0,59,0.00,,,0.19,169.0,meteohub,2013-06-18 21:37:00,
2013-06-18 17:42:00,82.2,65.5,29.85,SE,129,2.0,4.0,57,0.00,,,0.19,155.0,meteohub,2013-06-18 21:42:00,
2013-06-18 17:47:00,82.6,65.3,29.84,ESE,121,1.0,4.0,56,0.00,,,0.19,120.0,meteohub,2013-06-18 21:47:00,
2013-06-18 17:52:00,82.4,65.1,29.84,SE,144,1.0,5.0,56,0.00,,,0.19,517.0,meteohub,2013-06-18 21:52:00,
2013-06-18 17:57:00,82.0,65.8,29.83,ENE,58,1.0,5.0,58,0.00,,,0.19,497.0,meteohub,2013-06-18 21:57:00,
2013-06-18 18:02:00,81.9,64.0,29.83,ESE,103,0.0,5.0,55,0.00,,,0.19,475.0,meteohub,2013-06-18 22:02:00,
2013-06-18 18:07:00,82.8,65.5,29.83,ENE,65,2.0,3.0,56,0.00,,,0.19,441.0,meteohub,2013-06-18 22:07:00,
2013-06-18 18:12:00,83.7,66.4,29.82,SE,143,1.0,3.0,56,0.00,,,0.19,429.0,meteohub,2013-06-18 22:12:00,
2013-06-18 18:17:00,84.0,65.7,29.82,SSE,152,2.0,3.0,54,0.00,,,0.19,429.0,meteohub,2013-06-18 22:17:00,
2013-06-18 18:22:00,83.8,63.9,29.81,South,176,1.0,3.0,51,0.00,,,0.19,411.0,meteohub,2013-06-18 22:22:00,
2013-06-18 18:27:00,83.3,65.5,29.81,WNW,290,2.0,4.0,55,0.00,,,0.19,392.0,meteohub,2013-06-18 22:27:00,
2013-06-18 18:32:00,82.9,66.2,29.81,West,262,2.0,5.0,57,0.00,,,0.19,381.0,meteohub,2013-06-18 22:32:00,
2013-06-18 18:37:00,83.1,64.8,29.81,North,358,1.0,5.0,54,0.00,,,0.19,373.0,meteohub,2013-06-18 22:37:00,
2013-06-18 18:42:00,83.5,66.2,29.81,NW,321,0.0,5.0,56,0.00,,,0.19,360.0,meteohub,2013-06-18 22:42:00,
2013-06-18 18:47:00,83.5,66.2,29.82,NW,321,1.0,4.0,56,0.00,,,0.19,336.0,meteohub,2013-06-18 22:47:00,
2013-06-18 18:52:00,83.5,65.1,29.82,ESE,111,3.0,3.0,54,0.00,,,0.19,325.0,meteohub,2013-06-18 22:52:00,
2013-06-18 18:57:00,83.5,64.0,29.83,SE,132,1.0,4.0,52,0.00,,,0.19,316.0,meteohub,2013-06-18 22:57:00,
2013-06-18 19:03:00,83.5,65.7,29.83,NNE,29,0.0,4.0,55,0.00,,,0.19,301.0,meteohub,2013-06-18 23:03:00,
2013-06-18 19:08:00,83.1,66.4,29.84,North,3,0.0,4.0,57,0.00,,,0.19,272.0,meteohub,2013-06-18 23:08:00,
2013-06-18 19:13:00,83.1,65.3,29.84,NNW,340,1.0,3.0,55,0.00,,,0.19,248.0,meteohub,2013-06-18 23:13:00,
2013-06-18 19:18:00,82.9,65.7,29.85,NE,41,3.0,3.0,56,0.00,,,0.19,258.0,meteohub,2013-06-18 23:18:00,
2013-06-18 19:23:00,83.1,65.8,29.85,NNW,340,1.0,5.0,56,0.00,,,0.19,160.0,meteohub,2013-06-18 23:23:00,
2013-06-18 19:28:00,83.1,65.3,29.85,North,5,2.0,5.0,55,0.00,,,0.19,91.0,meteohub,2013-06-18 23:28:00,
2013-06-18 19:33:00,83.1,65.3,29.85,NNE,30,1.0,5.0,55,0.00,,,0.19,90.0,meteohub,2013-06-18 23:33:00,
2013-06-18 19:38:00,82.8,66.0,29.86,NNE,13,1.0,4.0,57,0.00,,,0.19,74.0,meteohub,2013-06-18 23:38:00,
2013-06-18 19:43:00,82.0,65.3,29.86,North,10,2.0,4.0,57,0.00,,,0.19,67.0,meteohub,2013-06-18 23:43:00,
2013-06-18 19:48:00,81.7,65.5,29.86,NNE,30,2.0,4.0,58,0.00,,,0.19,54.0,meteohub,2013-06-18 23:48:00,
2013-06-18 19:53:00,81.3,65.7,29.87,NE,52,2.0,4.0,59,0.00,,,0.19,44.0,meteohub,2013-06-18 23:53:00,
2013-06-18 19:58:00,81.0,65.8,29.87,NNE,25,2.0,3.0,60,0.00,,,0.19,26.0,meteohub,2013-06-18 23:58:00,
2013-06-18 20:03:00,80.4,65.7,29.88,North,10,4.0,4.0,61,0.00,,,0.19,5.0,meteohub,2013-06-19 00:03:00,
2013-06-18 20:08:00,79.2,60.1,29.90,East,92,4.0,6.0,52,0.00,,,0.00,0.0,meteohub,2013-06-19 00:08:00,
2013-06-18 20:13:00,76.6,57.2,29.90,ENE,60,7.0,20.0,51,0.00,,,0.00,0.0,meteohub,2013-06-19 00:13:00,
2013-06-18 20:19:00,74.5,57.2,29.90,NNE,18,7.0,20.0,55,0.00,,,0.00,0.0,meteohub,2013-06-19 00:19:00,
2013-06-18 20:24:00,72.9,57.2,29.91,North,354,5.0,20.0,58,0.00,,,0.00,0.0,meteohub,2013-06-19 00:24:00,
2013-06-18 20:29:00,71.8,59.4,29.92,NW,310,5.0,17.0,65,0.00,,,0.00,0.0,meteohub,2013-06-19 00:29:00,
2013-06-18 20:34:00,70.3,61.3,29.92,West,281,5.0,15.0,73,0.01,,,0.01,0.0,meteohub,2013-06-19 00:34:00,
2013-06-18 20:39:00,68.9,60.6,29.93,WNW,300,0.0,15.0,75,0.13,,,0.13,0.0,meteohub,2013-06-19 00:39:00,
2013-06-18 20:44:00,67.5,60.8,29.92,SE,140,3.0,9.0,79,0.21,,,0.20,0.0,meteohub,2013-06-19 00:44:00,
2013-06-18 20:49:00,66.4,61.0,29.94,WSW,244,5.0,7.0,83,0.23,,,0.23,0.0,meteohub,2013-06-19 00:49:00,
2013-06-18 20:54:00,65.5,60.8,29.94,WSW,248,3.0,5.0,85,0.26,,,0.26,0.0,meteohub,2013-06-19 00:54:00,
2013-06-18 20:59:00,64.9,60.6,29.95,WNW,294,5.0,7.0,86,0.27,,,0.26,0.0,meteohub,2013-06-19 00:59:00,
2013-06-18 21:05:00,64.6,60.3,29.95,WNW,290,2.0,10.0,86,0.27,,,0.27,0.0,meteohub,2013-06-19 01:05:00,
2013-06-18 21:10:00,64.2,60.6,29.95,West,268,2.0,10.0,88,0.27,,,0.27,0.0,meteohub,2013-06-19 01:10:00,
2013-06-18 21:15:00,64.2,60.6,29.95,SW,215,3.0,10.0,88,0.27,,,0.27,0.0,meteohub,2013-06-19 01:15:00,
2013-06-18 21:20:00,64.0,60.8,29.95,SSE,150,1.0,7.0,89,0.27,,,0.28,0.0,meteohub,2013-06-19 01:20:00,
2013-06-18 21:25:00,64.0,61.0,29.94,SSE,150,1.0,6.0,90,0.29,,,0.29,0.0,meteohub,2013-06-19 01:25:00,
2013-06-18 21:30:00,64.0,61.0,29.94,ESE,121,1.0,4.0,90,0.27,,,0.30,0.0,meteohub,2013-06-19 01:30:00,
2013-06-18 21:35:00,64.0,61.3,29.93,ESE,117,1.0,2.0,91,0.15,,,0.30,0.0,meteohub,2013-06-19 01:35:00,
2013-06-18 21:40:00,64.0,61.3,29.94,ESE,117,1.0,2.0,91,0.09,,,0.30,0.0,meteohub,2013-06-19 01:40:00,
2013-06-18 21:45:00,64.0,61.3,29.94,ESE,117,0.0,2.0,91,0.05,,,0.30,0.0,meteohub,2013-06-19 01:45:00,
2013-06-18 21:50:00,64.0,61.7,29.96,SE,146,2.0,3.0,92,0.04,,,0.30,0.0,meteohub,2013-06-19 01:50:00,
2013-06-18 21:55:00,64.0,61.7,29.96,SSE,150,5.0,5.0,92,0.03,,,0.30,0.0,meteohub,2013-06-19 01:55:00,
2013-06-18 22:01:00,64.0,61.3,29.96,South,171,3.0,8.0,91,0.03,,,0.30,0.0,meteohub,2013-06-19 02:01:00,
2013-06-18 22:06:00,63.9,61.2,29.96,SSE,156,3.0,8.0,91,0.03,,,0.30,0.0,meteohub,2013-06-19 02:06:00,
2013-06-18 22:11:00,63.9,61.2,29.96,SE,138,2.0,5.0,91,0.03,,,0.30,0.0,meteohub,2013-06-19 02:11:00,
2013-06-18 22:16:00,63.9,61.5,29.97,SE,127,3.0,5.0,92,0.02,,,0.30,0.0,meteohub,2013-06-19 02:16:00,
2013-06-18 22:21:00,63.7,61.3,29.97,SW,215,0.0,5.0,92,0.01,,,0.30,0.0,meteohub,2013-06-19 02:21:00,
2013-06-18 22:26:00,63.7,61.3,29.97,SSE,166,0.0,5.0,92,0.02,,,0.31,0.0,meteohub,2013-06-19 02:26:00,
2013-06-18 22:31:00,63.7,61.3,29.98,SSE,166,0.0,5.0,92,0.01,,,0.31,0.0,meteohub,2013-06-19 02:31:00,
2013-06-18 22:36:00,63.7,61.3,29.98,SSE,166,0.0,3.0,92,0.01,,,0.31,0.0,meteohub,2013-06-19 02:36:00,
2013-06-18 22:41:00,63.7,61.3,29.98,SSE,166,0.0,1.0,92,0.01,,,0.31,0.0,meteohub,2013-06-19 02:41:00,
2013-06-18 22:47:00,63.7,61.7,29.97,SSE,166,0.0,1.0,93,0.01,,,0.31,0.0,meteohub,2013-06-19 02:47:00,
2013-06-18 22:52:00,63.7,61.3,29.98,SSE,166,0.0,2.0,92,0.01,,,0.31,0.0,meteohub,2013-06-19 02:52:00,
2013-06-18 22:57:00,63.7,61.7,29.98,NNE,21,0.0,2.0,93,0.01,,,0.31,0.0,meteohub,2013-06-19 02:57:00,
2013-06-18 23:02:00,63.7,61.7,29.98,NNE,21,0.0,2.0,93,0.01,,,0.31,0.0,meteohub,2013-06-19 03:02:00,
2013-06-18 23:07:00,63.9,61.9,29.98,NNE,23,0.0,2.0,93,0.01,,,0.31,0.0,meteohub,2013-06-19 03:07:00,
2013-06-18 23:12:00,63.9,61.9,29.98,ENE,71,1.0,3.0,93,0.01,,,0.31,0.0,meteohub,2013-06-19 03:12:00,
2013-06-18 23:17:00,63.9,61.9,29.98,East,94,0.0,3.0,93,0.01,,,0.31,0.0,meteohub,2013-06-19 03:17:00,
2013-06-18 23:22:00,64.0,62.1,29.99,ENE,66,1.0,3.0,93,0.01,,,0.31,0.0,meteohub,2013-06-19 03:22:00,
2013-06-18 23:27:00,64.0,62.1,29.99,NNW,348,0.0,2.0,93,0.00,,,0.31,0.0,meteohub,2013-06-19 03:27:00,
2013-06-18 23:33:00,64.0,62.1,29.98,North,349,1.0,2.0,93,0.00,,,0.31,0.0,meteohub,2013-06-19 03:33:00,
2013-06-18 23:38:00,64.0,62.1,29.98,North,350,1.0,2.0,93,0.00,,,0.31,0.0,meteohub,2013-06-19 03:38:00,
2013-06-18 23:43:00,64.0,62.1,29.98,NNE,14,2.0,2.0,93,0.00,,,0.31,0.0,meteohub,2013-06-19 03:43:00,
2013-06-18 23:48:00,64.0,62.1,29.98,NE,42,2.0,2.0,93,0.00,,,0.31,0.0,meteohub,2013-06-19 03:48:00,
2013-06-18 23:53:00,64.0,62.1,29.98,ENE,75,1.0,3.0,93,0.00,,,0.31,0.0,meteohub,2013-06-19 03:53:00,
2013-06-18 23:58:00,64.0,62.1,29.98,ENE,75,0.0,3.0,93,0.00,,,0.31,0.0,meteohub,2013-06-19 03:58:00,